�������l�o���
Date,Time,MP-1(��Sv/h),MP-2(��Sv/h),MP-3(��Sv/h),MP-4(��Sv/h),MP-5(��Sv/h),MP-6(��Sv/h),MP-7(��Sv/h),MP-8(��Sv/h),����,����(m/s),���J
2019/08/24,00:00,0.754,1.051,0.730,1.308,0.953,0.426,0.740,0.702,���쐼,2.3,��
2019/08/24,00:10,0.750,1.050,0.731,1.307,0.954,0.426,0.743,0.703,�쐼,1.5,��
2019/08/24,00:20,0.752,1.053,0.730,1.308,0.953,0.427,0.743,0.702,��,2.0,��
2019/08/24,00:30,0.751,1.047,0.730,1.308,0.952,0.425,0.741,0.701,���쐼,1.5,��
2019/08/24,00:40,0.750,1.050,0.731,1.307,0.953,0.427,0.742,0.703,��쐼,2.3,��
2019/08/24,00:50,0.752,1.049,0.730,1.307,0.955,0.426,0.743,0.702,�쐼,2.3,��
2019/08/24,01:00,0.750,1.051,0.732,1.307,0.953,0.427,0.742,0.702,��,2.3,��
2019/08/24,01:10,0.750,1.051,0.733,1.308,0.954,0.426,0.740,0.702,��,3.3,��
2019/08/24,01:20,0.750,1.049,0.733,1.308,0.954,0.426,0.743,0.702,��,4.1,��
2019/08/24,01:30,0.750,1.049,0.730,1.307,0.953,0.427,0.744,0.701,���k��,5.0,��
2019/08/24,01:40,0.749,1.049,0.730,1.308,0.955,0.425,0.742,0.702,���k��,2.6,��
2019/08/24,01:50,0.751,1.048,0.732,1.310,0.952,0.426,0.742,0.703,��,1.9,��
2019/08/24,02:00,0.748,1.049,0.729,1.311,0.955,0.428,0.742,0.702,��,2.3,��
2019/08/24,02:10,0.750,1.048,0.730,1.309,0.956,0.427,0.741,0.702,��,3.2,��
2019/08/24,02:20,0.750,1.048,0.732,1.309,0.954,0.427,0.742,0.699,��,2.8,��
2019/08/24,02:30,0.751,1.049,0.731,1.308,0.952,0.427,0.742,0.702,���k��,3.1,��
2019/08/24,02:40,0.749,1.049,0.731,1.309,0.952,0.428,0.744,0.701,�k��,2.6,��
2019/08/24,02:50,0.749,1.050,0.730,1.312,0.955,0.426,0.743,0.701,�k��,2.9,��
2019/08/24,03:00,0.750,1.050,0.731,1.307,0.954,0.425,0.742,0.700,�k��,3.6,��
2019/08/24,03:10,0.752,1.049,0.732,1.309,0.955,0.427,0.743,0.702,���k��,3.4,��
2019/08/24,03:20,0.751,1.049,0.731,1.308,0.954,0.427,0.743,0.703,���k��,3.6,��
2019/08/24,03:30,0.750,1.050,0.730,1.309,0.954,0.426,0.742,0.700,���k��,3.3,��
2019/08/24,03:40,0.750,1.049,0.732,1.309,0.953,0.426,0.742,0.702,���k��,4.0,��
2019/08/24,03:50,0.750,1.050,0.730,1.310,0.954,0.425,0.743,0.701,�k��,2.6,��
2019/08/24,04:00,0.749,1.050,0.731,1.308,0.953,0.427,0.744,0.703,�k�k��,1.5,��
2019/08/24,04:10,0.752,1.050,0.731,1.309,0.953,0.427,0.742,0.702,�k�k��,0.9,��
2019/08/24,04:20,0.752,1.051,0.729,1.310,0.953,0.426,0.741,0.702,-,CALM,��
2019/08/24,04:30,0.752,1.050,0.730,1.308,0.956,0.427,0.742,0.702,��,1.2,��
2019/08/24,04:40,0.751,1.051,0.732,1.312,0.955,0.426,0.742,0.701,�k��,0.8,��
2019/08/24,04:50,0.748,1.050,0.730,1.310,0.952,0.428,0.744,0.700,���쐼,1.2,��
2019/08/24,05:00,0.749,1.051,0.731,1.309,0.953,0.427,0.743,0.701,�k��,1.5,��
2019/08/24,05:10,0.751,1.050,0.734,1.308,0.954,0.427,0.744,0.700,�k,2.2,��
2019/08/24,05:20,0.750,1.050,0.731,1.309,0.953,0.427,0.741,0.702,�k�k��,2.0,��
2019/08/24,05:30,0.750,1.050,0.730,1.308,0.953,0.426,0.742,0.703,�k�k��,2.9,��
2019/08/24,05:40,0.751,1.049,0.731,1.308,0.954,0.427,0.743,0.703,�k��,4.3,��
2019/08/24,05:50,0.751,1.051,0.730,1.310,0.954,0.427,0.743,0.700,���k��,5.2,��
2019/08/24,06:00,0.750,1.049,0.732,1.309,0.955,0.428,0.743,0.701,���k��,4.9,��
2019/08/24,06:10,0.752,1.049,0.730,1.310,0.952,0.426,0.743,0.701,���k��,5.4,��
2019/08/24,06:20,0.748,1.048,0.733,1.310,0.954,0.426,0.744,0.701,���k��,5.4,��
2019/08/24,06:30,0.750,1.052,0.730,1.308,0.950,0.427,0.744,0.700,���k��,6.1,��
2019/08/24,06:40,0.751,1.051,0.730,1.310,0.954,0.426,0.742,0.701,���k��,4.7,��
2019/08/24,06:50,0.752,1.049,0.731,1.308,0.952,0.427,0.743,0.702,���k��,2.5,��
2019/08/24,07:00,0.752,1.048,0.731,1.310,0.953,0.428,0.743,0.703,���k��,3.1,��
2019/08/24,07:10,0.753,1.047,0.729,1.307,0.953,0.425,0.744,0.701,���k��,3.1,��
2019/08/24,07:20,0.751,1.049,0.731,1.310,0.951,0.428,0.745,0.701,�k��,3.1,��
2019/08/24,07:30,0.753,1.050,0.728,1.309,0.953,0.426,0.743,0.702,�k��,2.2,��
2019/08/24,07:40,0.752,1.049,0.730,1.310,0.954,0.427,0.746,0.702,���k��,1.2,��
2019/08/24,07:50,0.751,1.047,0.729,1.311,0.953,0.427,0.746,0.702,��,1.2,��
2019/08/24,08:00,0.752,1.048,0.731,1.309,0.953,0.425,0.745,0.701,���k��,1.9,��
2019/08/24,08:10,0.751,1.045,0.732,1.311,0.955,0.429,0.743,0.702,�k�k��,2.2,��
2019/08/24,08:20,0.752,1.043,0.730,1.311,0.954,0.428,0.745,0.702,�k�k��,1.9,��
2019/08/24,08:30,0.751,1.048,0.730,1.310,0.953,0.427,0.746,0.703,�k,1.7,��
2019/08/24,08:40,0.750,1.047,0.731,1.311,0.954,0.428,0.744,0.700,�k�k��,1.7,��
2019/08/24,08:50,0.753,1.045,0.731,1.313,0.954,0.428,0.746,0.700,�k��,0.9,��
2019/08/24,09:00,0.754,1.047,0.728,1.311,0.954,0.428,0.744,0.700,��,3.7,��
2019/08/24,09:10,0.754,1.049,0.728,1.313,0.954,0.426,0.744,0.701,���k��,5.1,��
2019/08/24,09:20,0.755,1.047,0.730,1.312,0.955,0.427,0.745,0.700,��,4.4,��
2019/08/24,09:30,0.755,1.049,0.731,1.311,0.954,0.428,0.745,0.700,��,4.1,��
2019/08/24,09:40,0.754,1.048,0.730,1.312,0.956,0.427,0.744,0.703,��,3.9,��
2019/08/24,09:50,0.753,1.049,0.732,1.312,0.957,0.428,0.745,0.702,��,4.2,��
2019/08/24,10:00,0.754,1.052,0.731,1.313,0.957,0.428,0.744,0.701,���k��,5.7,��
2019/08/24,10:10,0.754,1.051,0.731,1.312,0.956,0.429,0.743,0.701,��,4.5,��
2019/08/24,10:20,0.755,1.052,0.732,1.313,0.960,0.427,0.745,0.703,���쐼,6.9,��
2019/08/24,10:30,0.755,1.056,0.732,1.316,0.958,0.428,0.746,0.702,���쐼,6.9,��
2019/08/24,10:40,0.756,1.051,0.730,1.316,0.958,0.428,0.744,0.703,��,6.2,��
2019/08/24,10:50,0.759,1.054,0.732,1.316,0.961,0.430,0.744,0.704,���k��,7.4,��
2019/08/24,11:00,0.757,1.056,0.733,1.318,0.960,0.429,0.747,0.703,���k��,7.5,��
2019/08/24,11:10,0.759,1.058,0.733,1.317,0.962,0.427,0.744,0.701,���k��,7.4,��
2019/08/24,11:20,0.758,1.058,0.734,1.320,0.961,0.429,0.746,0.703,���k��,9.6,��
2019/08/24,11:30,0.757,1.059,0.735,1.318,0.962,0.429,0.746,0.702,���k��,10.2,��
2019/08/24,11:40,0.758,1.060,0.734,1.316,0.962,0.428,0.747,0.703,���k��,8.2,��
2019/08/24,11:50,0.758,1.060,0.736,1.318,0.964,0.428,0.746,0.704,���k��,9.9,��
2019/08/24,12:00,0.758,1.063,0.736,1.320,0.963,0.428,0.745,0.702,��,7.5,��
2019/08/24,12:10,0.757,1.065,0.736,1.320,0.962,0.428,0.745,0.703,��,7.3,��
2019/08/24,12:20,0.758,1.065,0.736,1.319,0.964,0.428,0.747,0.704,��,6.7,��
2019/08/24,12:30,0.758,1.065,0.738,1.321,0.963,0.427,0.746,0.704,��,5.8,��
2019/08/24,12:40,0.759,1.064,0.737,1.321,0.964,0.427,0.747,0.702,��,2.3,��
2019/08/24,12:50,0.760,1.065,0.738,1.322,0.965,0.426,0.745,0.702,��,5.9,��
2019/08/24,13:00,0.760,1.064,0.736,1.320,0.963,0.427,0.747,0.705,��쐼,3.2,��
2019/08/24,13:10,0.760,1.061,0.737,1.323,0.965,0.426,0.746,0.704,��쓌,3.9,��
2019/08/24,13:20,0.759,1.062,0.737,1.322,0.967,0.426,0.746,0.703,��,3.0,��
2019/08/24,13:30,0.759,1.061,0.736,1.320,0.965,0.426,0.746,0.702,��,5.1,��
2019/08/24,13:40,0.758,1.062,0.737,1.319,0.966,0.426,0.747,0.704,��,4.6,��
2019/08/24,13:50,0.759,1.060,0.735,1.320,0.965,0.426,0.745,0.702,��쐼,4.7,��
2019/08/24,14:00,0.759,1.062,0.737,1.319,0.967,0.426,0.746,0.702,��,4.3,��
2019/08/24,14:10,0.759,1.060,0.736,1.319,0.967,0.426,0.747,0.702,��,4.6,��
2019/08/24,14:20,0.759,1.062,0.736,1.317,0.965,0.427,0.746,0.703,��쐼,4.2,��
2019/08/24,14:30,0.759,1.063,0.733,1.320,0.967,0.426,0.746,0.702,��,4.9,��
2019/08/24,14:40,0.758,1.064,0.739,1.322,0.967,0.424,0.748,0.703,��,5.3,��
2019/08/24,14:50,0.757,1.060,0.736,1.319,0.966,0.428,0.745,0.703,��,5.7,��
2019/08/24,15:00,0.760,1.063,0.738,1.318,0.966,0.426,0.748,0.703,��,5.6,��
2019/08/24,15:10,0.757,1.061,0.739,1.321,0.966,0.428,0.745,0.701,��,5.3,��
2019/08/24,15:20,0.760,1.067,0.739,1.321,0.965,0.427,0.746,0.701,��,5.3,��
2019/08/24,15:30,0.758,1.068,0.739,1.322,0.966,0.428,0.747,0.702,��,4.5,��
2019/08/24,15:40,0.760,1.065,0.740,1.321,0.966,0.428,0.747,0.703,��,5.0,��
2019/08/24,15:50,0.758,1.066,0.740,1.322,0.966,0.428,0.749,0.705,��,4.9,��
2019/08/24,16:00,0.760,1.069,0.740,1.323,0.967,0.427,0.747,0.703,��쐼,5.1,��
2019/08/24,16:10,0.761,1.064,0.739,1.324,0.967,0.429,0.747,0.704,�쐼,4.1,��
2019/08/24,16:20,0.761,1.068,0.739,1.322,0.967,0.429,0.747,0.703,�쐼,2.6,��
2019/08/24,16:30,0.761,1.068,0.740,1.321,0.967,0.428,0.747,0.703,�쐼,2.0,��
2019/08/24,16:40,0.761,1.066,0.740,1.323,0.966,0.429,0.747,0.704,���쐼,1.9,��
2019/08/24,16:50,0.762,1.066,0.740,1.323,0.967,0.428,0.747,0.704,���k��,2.6,��
2019/08/24,17:00,0.762,1.065,0.741,1.322,0.965,0.429,0.747,0.702,���k��,2.3,��
2019/08/24,17:10,0.761,1.067,0.738,1.325,0.967,0.429,0.747,0.703,���k��,2.8,��
2019/08/24,17:20,0.761,1.066,0.740,1.323,0.967,0.430,0.746,0.703,�k��,2.9,��
2019/08/24,17:30,0.762,1.067,0.738,1.323,0.966,0.429,0.748,0.703,�k��,3.8,��
2019/08/24,17:40,0.762,1.066,0.741,1.324,0.970,0.429,0.745,0.705,�k��,3.8,��
2019/08/24,17:50,0.759,1.068,0.740,1.326,0.967,0.430,0.747,0.702,�k��,4.0,��
2019/08/24,18:00,0.761,1.069,0.741,1.325,0.969,0.429,0.745,0.703,�k��,4.5,��
2019/08/24,18:10,0.761,1.069,0.739,1.323,0.969,0.429,0.747,0.704,�k��,4.4,��
2019/08/24,18:20,0.761,1.069,0.739,1.322,0.968,0.430,0.745,0.702,�k��,5.1,��
2019/08/24,18:30,0.763,1.069,0.738,1.324,0.968,0.431,0.745,0.703,�k�k��,5.2,��
2019/08/24,18:40,0.759,1.069,0.740,1.322,0.967,0.430,0.746,0.704,�k�k��,5.5,��
2019/08/24,18:50,0.760,1.068,0.741,1.325,0.969,0.429,0.746,0.704,�k�k��,5.8,��
2019/08/24,19:00,0.761,1.066,0.742,1.321,0.967,0.431,0.745,0.702,�k�k��,4.9,��
2019/08/24,19:10,0.759,1.071,0.741,1.322,0.968,0.430,0.747,0.702,�k�k��,3.6,��
2019/08/24,19:20,0.761,1.069,0.741,1.325,0.967,0.430,0.750,0.703,�k�k��,3.5,��
2019/08/24,19:30,0.761,1.065,0.742,1.323,0.969,0.427,0.746,0.703,�k�k��,3.5,��
2019/08/24,19:40,0.761,1.068,0.741,1.326,0.969,0.430,0.749,0.702,�k�k��,4.1,��
2019/08/24,19:50,0.761,1.068,0.743,1.325,0.969,0.429,0.746,0.703,�k�k��,3.6,��
2019/08/24,20:00,0.762,1.068,0.742,1.324,0.966,0.429,0.748,0.704,�k�k��,4.3,��
2019/08/24,20:10,0.759,1.069,0.742,1.324,0.968,0.430,0.747,0.703,�k�k��,4.3,��
2019/08/24,20:20,0.759,1.070,0.742,1.325,0.967,0.429,0.747,0.703,�k�k��,4.2,��
2019/08/24,20:30,0.762,1.069,0.741,1.324,0.969,0.430,0.747,0.705,�k��,3.5,��
2019/08/24,20:40,0.759,1.068,0.742,1.323,0.969,0.428,0.747,0.703,�k��,3.6,��
2019/08/24,20:50,0.761,1.069,0.740,1.326,0.970,0.429,0.747,0.704,�k�k��,3.7,��
2019/08/24,21:00,0.759,1.068,0.741,1.325,0.970,0.430,0.747,0.703,�k��,3.6,��
2019/08/24,21:10,0.759,1.069,0.741,1.325,0.969,0.429,0.748,0.704,�k��,4.1,��
2019/08/24,21:20,0.761,1.068,0.740,1.325,0.967,0.430,0.747,0.704,�k��,3.5,��
2019/08/24,21:30,0.761,1.072,0.740,1.326,0.970,0.429,0.746,0.705,�k��,2.6,��
2019/08/24,21:40,0.761,1.069,0.742,1.325,0.968,0.430,0.747,0.702,�k��,2.3,��
2019/08/24,21:50,0.757,1.067,0.740,1.326,0.970,0.429,0.747,0.704,��,2.2,��
2019/08/24,22:00,0.761,1.069,0.742,1.325,0.971,0.428,0.746,0.704,���k��,1.9,��
2019/08/24,22:10,0.760,1.068,0.742,1.326,0.969,0.430,0.745,0.704,��,2.0,��
2019/08/24,22:20,0.759,1.068,0.742,1.327,0.968,0.429,0.745,0.702,��,1.9,��
2019/08/24,22:30,0.760,1.067,0.743,1.326,0.967,0.431,0.745,0.705,�k��,1.5,��
2019/08/24,22:40,0.762,1.071,0.741,1.325,0.967,0.429,0.749,0.705,�k,1.5,��
2019/08/24,22:50,0.759,1.070,0.741,1.328,0.970,0.428,0.746,0.703,�k�k��,2.9,��
2019/08/24,23:00,0.761,1.068,0.740,1.329,0.968,0.429,0.747,0.703,�k��,4.6,��
2019/08/24,23:10,0.760,1.068,0.742,1.326,0.970,0.429,0.745,0.703,�k��,5.5,��
2019/08/24,23:20,0.761,1.072,0.742,1.326,0.971,0.430,0.746,0.704,�k��,4.9,��
2019/08/24,23:30,0.759,1.068,0.742,1.324,0.969,0.430,0.748,0.703,�k��,3.9,��
2019/08/24,23:40,0.759,1.066,0.740,1.327,0.970,0.428,0.745,0.704,���k��,3.2,��
2019/08/24,23:50,0.760,1.070,0.742,1.326,0.970,0.429,0.747,0.703,���k��,4.1,��
